TimeCET,TemperatureF,Dew PointF,Humidity,Sea Level PressureIn,VisibilityMPH,Wind Direction,Wind SpeedMPH,Gust SpeedMPH,PrecipitationIn,Events,Conditions,WindDirDegrees,DateUTC
12:00 AM,27,25,91,30.20,3,South,4.5,,,,Mist,170,2013-12-18 23:00:00
12:00 AM,26.6,24.8,93,30.12,3.1,SSE,6.9,-,N/A,,Overcast,160,2013-12-18 23:00:00
12:30 AM,26.6,24.8,93,30.09,3.1,South,6.9,-,N/A,,Overcast,170,2013-12-18 23:30:00
1:00 AM,26,25,93,30.17,3,SSE,8.9,,,,Mist,150,2013-12-19 00:00:00
1:00 AM,26.6,24.8,93,30.09,3.1,SSE,5.8,-,N/A,,Overcast,160,2013-12-19 00:00:00
1:30 AM,26.6,24.8,93,30.09,3.1,SE,5.8,-,N/A,,Overcast,130,2013-12-19 00:30:00
2:00 AM,26,25,92,30.17,3,South,4.5,,,,Mist,170,2013-12-19 01:00:00
2:00 AM,26.6,24.8,93,30.06,3.1,SSE,5.8,-,N/A,,Overcast,150,2013-12-19 01:00:00
2:30 AM,26.6,24.8,93,30.06,3.1,South,6.9,-,N/A,,Overcast,170,2013-12-19 01:30:00
2:37 AM,26.6,24.8,93,30.06,3.7,SE,5.8,-,N/A,,Overcast,140,2013-12-19 01:37:00
3:00 AM,26,25,92,30.14,4,SSE,6.7,,,,Mist,160,2013-12-19 02:00:00
3:00 AM,26.6,24.8,93,30.04,3.7,SSE,5.8,-,N/A,,Overcast,160,2013-12-19 02:00:00
3:30 AM,26.6,24.8,93,30.04,3.7,SE,8.1,-,N/A,,Overcast,140,2013-12-19 02:30:00
4:00 AM,25,24,95,30.11,4,South,6.7,,,,Mist,170,2013-12-19 03:00:00
4:00 AM,24.8,24.8,100,30.01,3.7,SSE,5.8,-,N/A,,Overcast,160,2013-12-19 03:00:00
4:30 AM,24.8,24.8,100,30.01,3.7,SSE,4.6,-,N/A,,Overcast,160,2013-12-19 03:30:00
5:00 AM,26,24,90,30.11,4,SSE,4.5,,,,Mist,160,2013-12-19 04:00:00
5:00 AM,24.8,24.8,100,30.01,5.0,SSE,4.6,-,N/A,,Overcast,160,2013-12-19 04:00:00
5:30 AM,24.8,24.8,100,29.98,5.0,SSE,8.1,-,N/A,,Overcast,160,2013-12-19 04:30:00
6:00 AM,26,24,89,30.09,5,South,6.7,,,,Mist,170,2013-12-19 05:00:00
6:00 AM,24.8,24.8,100,30.01,5.0,SSE,8.1,-,N/A,,Overcast,160,2013-12-19 05:00:00
6:30 AM,24.8,24.8,100,29.98,5.0,SSE,8.1,-,N/A,,Overcast,150,2013-12-19 05:30:00
7:00 AM,25,24,94,30.07,6,SSE,6.7,,,,Mist,160,2013-12-19 06:00:00
7:00 AM,24.8,24.8,100,29.98,5.6,SSE,6.9,-,N/A,,Overcast,150,2013-12-19 06:00:00
7:30 AM,24.8,24.8,100,29.98,6.2,SSE,9.2,-,N/A,,Overcast,160,2013-12-19 06:30:00
8:00 AM,25,24,92,30.07,6,South,6.7,,,,Overcast,170,2013-12-19 07:00:00
8:00 AM,24.8,23.0,93,29.98,6.2,South,8.1,-,N/A,,Overcast,180,2013-12-19 07:00:00
8:30 AM,26.6,24.8,93,29.98,6.2,SSE,8.1,-,N/A,,Overcast,160,2013-12-19 07:30:00
9:00 AM,26,24,90,30.06,6,SSE,6.7,,,,Overcast,160,2013-12-19 08:00:00
9:00 AM,26.6,24.8,93,29.98,6.2,SSE,9.2,-,N/A,,Overcast,160,2013-12-19 08:00:00
9:30 AM,26.6,24.8,93,29.98,6.2,SSE,8.1,-,N/A,,Overcast,150,2013-12-19 08:30:00
10:00 AM,26,25,92,30.05,6,SSE,8.9,,,,Overcast,150,2013-12-19 09:00:00
10:00 AM,26.6,24.8,93,29.98,6.2,SSE,8.1,-,N/A,,Overcast,150,2013-12-19 09:00:00
10:30 AM,26.6,24.8,93,29.98,6.2,SSE,8.1,-,N/A,,Overcast,150,2013-12-19 09:30:00
11:00 AM,27,25,89,30.05,9,SSE,6.7,,,,Overcast,160,2013-12-19 10:00:00
11:00 AM,26.6,24.8,93,29.95,6.2,SSE,8.1,-,N/A,,Overcast,150,2013-12-19 10:00:00
11:30 AM,26.6,24.8,93,29.95,6.2,SSE,6.9,-,N/A,,Overcast,150,2013-12-19 10:30:00
12:00 PM,28,26,88,30.04,7,South,6.7,,,,Overcast,170,2013-12-19 11:00:00
12:00 PM,28.4,26.6,93,29.95,6.2,SSE,6.9,-,N/A,,Overcast,160,2013-12-19 11:00:00
12:30 PM,28.4,26.6,93,29.95,6.2,SSE,5.8,-,N/A,,Overcast,160,2013-12-19 11:30:00
1:00 PM,28,26,87,30.03,7,SSE,6.7,,,,Overcast,160,2013-12-19 12:00:00
1:00 PM,28.4,26.6,93,29.95,6.2,SE,6.9,-,N/A,,Overcast,140,2013-12-19 12:00:00
1:30 PM,28.4,26.6,93,29.95,6.2,South,6.9,-,N/A,,Overcast,170,2013-12-19 12:30:00
2:00 PM,28,26,87,30.04,7,South,4.5,,,,Overcast,170,2013-12-19 13:00:00
2:00 PM,28.4,26.6,93,29.95,6.2,South,5.8,-,N/A,,Overcast,170,2013-12-19 13:00:00
2:30 PM,28.4,26.6,93,29.95,6.2,SSE,8.1,-,N/A,,Mostly Cloudy,160,2013-12-19 13:30:00
3:00 PM,29,26,81,30.05,9,SSE,4.5,,,,Overcast,160,2013-12-19 14:00:00
3:00 PM,28.4,26.6,93,29.98,6.2,SSE,5.8,-,N/A,,Mostly Cloudy,160,2013-12-19 14:00:00
3:30 PM,28.4,26.6,93,29.98,6.2,SSE,6.9,-,N/A,,Mostly Cloudy,160,2013-12-19 14:30:00
4:00 PM,29,26,81,30.05,9,SSE,6.7,,,,Overcast,160,2013-12-19 15:00:00
4:00 PM,28.4,26.6,93,29.95,6.2,SE,8.1,-,N/A,,Mostly Cloudy,140,2013-12-19 15:00:00
4:30 PM,28.4,24.8,86,29.98,6.2,SE,6.9,-,N/A,,Partly Cloudy,140,2013-12-19 15:30:00
5:00 PM,29,25,80,30.05,9,SE,6.7,,,,Overcast,130,2013-12-19 16:00:00
5:00 PM,28.4,24.8,86,29.98,6.2,ESE,6.9,-,N/A,,Partly Cloudy,120,2013-12-19 16:00:00
5:30 PM,28.4,26.6,93,29.98,6.2,ESE,6.9,-,N/A,,Partly Cloudy,110,2013-12-19 16:30:00
6:00 PM,29,25,80,30.06,9,ESE,6.7,,,,Overcast,120,2013-12-19 17:00:00
6:00 PM,28.4,24.8,86,29.98,6.2,ESE,5.8,-,N/A,,Mostly Cloudy,110,2013-12-19 17:00:00
6:30 PM,30.2,26.6,86,29.98,6.2,ESE,8.1,-,N/A,Snow,Light Snow,120,2013-12-19 17:30:00
6:49 PM,30.2,26.6,86,29.98,6.2,SE,10.4,-,N/A,,Mostly Cloudy,140,2013-12-19 17:49:00
7:00 PM,29,25,80,30.06,7,SSE,6.7,,,Snow,Light Snow,160,2013-12-19 18:00:00
7:00 PM,30.2,26.6,86,29.98,6.2,SE,11.5,-,N/A,,Mostly Cloudy,140,2013-12-19 18:00:00
7:30 PM,30.2,26.6,86,29.98,6.2,SSE,9.2,-,N/A,,Mostly Cloudy,160,2013-12-19 18:30:00
8:00 PM,30,26,78,30.07,7,South,6.7,,,,Overcast,170,2013-12-19 19:00:00
8:00 PM,30.2,26.6,86,29.98,6.2,SSE,9.2,-,N/A,,Mostly Cloudy,160,2013-12-19 19:00:00
8:30 PM,30.2,26.6,86,29.98,6.2,SSE,6.9,-,N/A,,Scattered Clouds,150,2013-12-19 19:30:00
9:00 PM,29,26,82,30.09,7,South,4.5,,,,Partly Cloudy,180,2013-12-19 20:00:00
9:00 PM,30.2,26.6,86,30.01,6.2,South,5.8,-,N/A,,Scattered Clouds,180,2013-12-19 20:00:00
9:30 PM,28.4,26.6,93,30.01,6.2,SSE,3.5,-,N/A,,Mostly Cloudy,150,2013-12-19 20:30:00
10:00 PM,29,26,83,30.09,7,ESE,6.7,,,,Partly Cloudy,110,2013-12-19 21:00:00
10:00 PM,30.2,26.6,86,30.01,6.2,East,5.8,-,N/A,,Scattered Clouds,100,2013-12-19 21:00:00
10:30 PM,30.2,26.6,86,30.01,6.2,SE,6.9,-,N/A,,Partly Cloudy,130,2013-12-19 21:30:00
11:00 PM,30,25,76,30.12,7,SSE,4.5,,,,Scattered Clouds,160,2013-12-19 22:00:00
11:00 PM,30.2,26.6,86,30.04,6.2,SSE,5.8,-,N/A,,Partly Cloudy,150,2013-12-19 22:00:00
11:30 PM,30.2,26.6,86,30.04,6.2,SSE,4.6,-,N/A,,Partly Cloudy,160,2013-12-19 22:30:00